Date,TemperatureHighF,TemperatureAvgF,TemperatureLowF,DewpointHighF,DewpointAvgF,DewpointLowF,HumidityHigh,HumidityAvg,HumidityLow,PressureMaxIn,PressureMinIn,WindSpeedMaxMPH,WindSpeedAvgMPH,GustSpeedMaxMPH,PrecipitationSumIn
2013-1-1,47.5,45.1,41.9,47.0,40.0,30.0,97,83,54,30.03,29.87,3,0,6,0.31
2013-1-2,51.7,47.7,43.5,47.0,43.5,40.0,98,86,70,30.06,29.82,5,1,9,0.04
2013-1-3,43.7,40.2,29.6,40.0,35.8,25.0,95,84,60,30.20,30.02,7,1,14,0.00
2013-1-4,50.7,36.5,24.6,31.0,23.3,19.0,91,63,33,30.27,30.16,8,2,12,0.00
2013-1-5,47.8,37.6,24.0,32.0,23.9,20.0,84,60,36,30.32,30.16,8,1,12,0.00
2013-1-6,55.8,44.3,39.0,42.0,35.9,29.0,89,74,56,30.16,29.95,7,2,11,0.00
2013-1-7,52.1,40.4,28.8,31.0,28.3,25.0,86,64,40,30.34,30.12,7,2,16,0.00
2013-1-8,50.9,39.9,27.1,42.0,34.1,25.0,94,81,61,30.39,30.29,5,1,6,0.00
2013-1-9,58.0,51.1,43.9,53.0,47.4,41.0,95,87,74,30.36,30.29,3,1,6,0.00
2013-1-10,65.9,55.7,46.3,53.0,48.2,39.0,98,78,52,30.41,30.27,9,2,12,0.00
2013-1-11,54.9,49.5,48.6,50.0,48.3,44.0,98,95,68,30.28,30.06,6,1,7,0.33
2013-1-12,69.8,58.7,49.9,65.0,57.2,49.0,99,94,81,30.08,29.99,4,1,6,0.01
2013-1-13,69.2,60.7,54.3,62.0,58.1,54.0,98,91,76,30.02,29.93,13,3,18,0.00
2013-1-14,64.7,62.2,57.1,64.0,61.4,55.0,98,97,93,30.01,29.93,8,2,11,0.46
2013-1-15,56.7,49.1,43.4,56.0,48.2,43.0,98,96,94,30.06,29.97,4,1,10,0.59
2013-1-16,50.1,46.6,43.1,49.0,46.0,42.0,98,98,97,29.97,29.88,4,1,6,0.30
2013-1-17,52.7,46.6,36.5,53.0,45.3,35.0,99,95,89,30.11,29.69,17,3,31,1.55
2013-1-18,51.9,39.9,29.8,35.0,27.1,22.0,88,63,31,30.43,30.11,6,2,15,0.44
2013-1-19,53.7,37.5,25.9,32.0,27.3,24.0,92,70,36,30.41,30.10,8,2,11,0.00
2013-1-20,63.7,44.5,29.6,36.0,29.0,25.0,90,60,25,30.10,29.95,12,2,18,0.00
2013-1-21,58.8,42.4,27.9,34.0,24.8,14.0,92,56,26,30.00,29.85,16,5,27,0.00
2013-1-22,39.6,33.3,25.4,14.0,6.8,-4.0,60,34,16,30.18,29.94,13,4,20,0.00
2013-1-23,46.4,33.3,22.9,25.0,16.0,7.0,76,51,34,30.27,29.99,11,3,15,0.00
2013-1-24,44.6,37.4,24.9,30.0,15.7,3.0,79,45,19,30.42,29.90,17,4,18,0.00
2013-1-25,27.3,25.0,20.6,26.0,16.0,6.0,94,70,44,30.43,30.05,8,2,9,0.00
2013-1-26,47.9,33.8,23.6,37.0,28.6,22.0,96,83,43,30.29,30.04,4,1,5,0.01
2013-1-27,43.4,36.6,29.8,32.0,27.4,23.0,88,70,54,30.48,30.29,5,2,9,0.00
2013-1-28,57.3,43.1,35.9,48.0,37.3,30.0,94,80,69,30.39,30.17,12,2,13,0.00
2013-1-29,70.2,54.7,37.9,59.0,49.9,37.0,98,85,63,30.17,29.91,11,2,20,0.00
2013-1-30,67.9,62.6,48.7,62.0,59.4,46.0,97,89,81,29.92,29.33,17,6,22,1.58
2013-1-31,48.2,39.8,29.3,46.0,25.5,19.0,90,59,37,29.94,29.43,20,8,26,0.10